Home > Weather > Helsinki > Past weeks

Flag for Finland Weather for the Past 2 Weeks in Helsinki, Finland

Now
61 °F

Sunny.


Feels Like: 61 °F
Forecast: 37 / 60 °F
Wind: 8 mph from Southeast

Location: Helsinki Malmi Airport

Current Time: May 3, 2016 at 5:24:22 PM

Latest Report: May 3, 2016 at 4:50 PM


Visibility: 10 mi

Pressure: 30.09 "Hg

Humidity: 45%

Dew Point: 39 °F

Location of HelsinkiLocation

Historic Weather in Helsinki — Graph

°F

Helsinki Temperature Yesterday

Maximum temperature yesterday: 61 °F (at 12:20 PM)
Minimum temperature yesterday: 34 °F (at 5:20 AM)
Average temperature yesterday: 51 °F

High & Low Weather Summary for the Past Weeks

 TemperatureHumidityPressure
High63 °F (May 3, 1:20 PM)100% (Apr 20, 1:20 AM)30.33 "Hg (Apr 20, 1:20 AM)
Low28 °F (Apr 22, 5:50 AM)27% (May 2, 3:50 PM)29.45 "Hg (Apr 25, 2:20 AM)
Average43 °F77%29.89 "Hg
* Reported Apr 18 4:20 PM — May 3 4:20 PM, Helsinki, Weather by CustomWeather, © 2016

Note: Actual official high and low records may vary slightly from our data, if they occured in-between our weather recording intervals... More about our weather records

Advertising

Helsinki Weather History for the Previous 24 Hours

Scroll right to see more
 ConditionsComfort  
Time TempWeatherWind HumidityBarometerVisibility
4:20 PM
Tue, May 3
61 °FPassing clouds.9 mph48%30.09 "HgN/A
3:50 PM61 °FPassing clouds.8 mph45%30.09 "HgN/A
3:20 PM63 °FPassing clouds.8 mph39%30.12 "HgN/A
2:20 PM61 °FSunny.5 mph36%30.12 "Hg10 mi
1:50 PM61 °FPassing clouds.5 mph31%30.12 "HgN/A
1:20 PM63 °FPassing clouds.6 mph34%30.12 "HgN/A
12:50 PM61 °FPassing clouds.6 mph31%30.12 "HgN/A
12:20 PM61 °FPassing clouds.6 mph36%30.12 "HgN/A
11:50 AM59 °FPassing clouds.6 mph42%30.12 "HgN/A
11:20 AM59 °FPassing clouds.7 mph39%30.15 "HgN/A
10:50 AM59 °FPassing clouds.6 mph39%30.15 "HgN/A
10:20 AM59 °FSunny.1 mph27%30.15 "Hg10 mi
9:50 AM57 °FSunny.No wind36%30.15 "Hg10 mi
9:20 AM55 °FSunny.1 mph44%30.15 "Hg10 mi
8:20 AM52 °FSunny.2 mph54%30.15 "Hg10 mi
7:50 AM48 °FSunny.1 mph66%30.15 "Hg10 mi
3:50 AM37 °FClear.No wind81%30.15 "Hg10 mi
3:20 AM37 °FClear.No wind81%30.15 "Hg10 mi
2:50 AM37 °FClear.No wind87%30.15 "Hg10 mi
2:20 AM39 °FClear.No wind75%30.18 "Hg10 mi
1:50 AM39 °FClear.No wind75%30.18 "Hg10 mi
1:20 AM39 °FClear.No wind75%30.18 "Hg10 mi
12:50 AM41 °FClear.No wind70%30.18 "Hg10 mi
12:20 AM43 °FClear.No wind66%30.18 "Hg10 mi
11:50 PM
Mon, May 2
43 °FClear.No wind66%30.18 "Hg10 mi
11:20 PM45 °FClear.1 mph61%30.18 "Hg10 mi
10:50 PM48 °FClear.1 mph54%30.18 "Hg10 mi
10:20 PM48 °FSunny.1 mph54%30.18 "Hg10 mi
9:50 PM52 °FSunny.2 mph44%30.18 "Hg10 mi
9:20 PM54 °FSunny.3 mph44%30.18 "Hg10 mi
8:50 PM55 °FSunny.7 mph41%30.18 "Hg10 mi
8:20 PM55 °FSunny.8 mph41%30.18 "Hg10 mi
7:50 PM59 °FPassing clouds.7 mph34%30.18 "HgN/A
7:20 PM61 °FSunny.8 mph29%30.18 "Hg10 mi
6:50 PM61 °FPassing clouds.7 mph29%30.18 "HgN/A
6:20 PM61 °FPassing clouds.9 mph29%30.21 "HgN/A
5:50 PM61 °FPassing clouds.9 mph27%30.21 "HgN/A
5:20 PM61 °FSunny.12 mph29%30.21 "Hg10 mi
Weather by CustomWeather, © 2016

See weather overviewHow to use our weather pages